EW4504 Weather Reports


time (UTC)temp
F
wind
direction
speed
knots
gust
knots
rain 1hr
in
rain 24hr
in
rain mn
in
humidity
%
barometer
mb
20260505192030 79 240 5.2 12.2 0.00 0.00 0.00 38 1014.3
20260505191537 80 205 5.2 12.2 0.00 0.00 0.00 37 1014.3
20260505191030 80 218 5.2 12.2 0.00 0.00 0.00 37 1014.4
20260505190528 79 150 3.5 12.2 0.00 0.00 0.00 36 1014.5
20260505190037 79 214 5.2 9.6 0.00 0.00 0.00 38 1014.5
20260505185528 79 178 3.5 13.0 0.00 0.00 0.00 38 1014.4
20260505185030 79 188 3.5 13.0 0.00 0.00 0.00 38 1014.5
20260505184542 80 98 5.2 11.3 0.00 0.00 0.00 36 1014.5
20260505184031 80 217 3.5 8.7 0.00 0.00 0.00 38 1014.7
20260505183531 80 128 3.5 15.6 0.00 0.00 0.00 38 1014.6
20260505183041 79 223 7.0 15.6 0.00 0.00 0.00 38 1014.6
20260505182527 79 146 4.3 9.6 0.00 0.00 0.00 38 1014.6
20260505182028 79 239 3.5 8.7 0.00 0.00 0.00 37 1014.8
20260505181543 80 218 3.5 11.3 0.00 0.00 0.00 38 1014.8
20260505181029 80 217 6.1 16.5 0.00 0.00 0.00 37 1015.0
20260505180529 81 201 6.1 16.5 0.00 0.00 0.00 37 1015.1
20260505180104 80 229 4.3 11.3 0.00 0.00 0.00 39 1015.0
20260505175530 80 209 5.2 9.6 0.00 0.00 0.00 39 1015.2
20260505175034 80 222 4.3 14.8 0.00 0.00 0.00 39 1015.2
20260505174558 80 198 6.1 14.8 0.00 0.00 0.00 39 1015.2
20260505174030 80 212 4.3 12.2 0.00 0.00 0.00 38 1015.2
20260505173533 79 215 1.7 10.4 0.00 0.00 0.00 39 1015.4
20260505173045 79 209 5.2 10.4 0.00 0.00 0.00 40 1015.5
20260505172531 79 114 2.6 8.7 0.00 0.00 0.00 42 1015.4
20260505172035 79 229 3.5 9.6 0.00 0.00 0.00 41 1015.5
20260505171540 79 209 5.2 9.6 0.00 0.00 0.00 41 1015.5
20260505171031 79 205 4.3 10.4 0.00 0.00 0.00 41 1015.5
20260505170531 79 249 5.2 14.8 0.00 0.00 0.00 41 1015.6
20260505170039 79 207 5.2 14.8 0.00 0.00 0.00 39 1015.5
20260505165534 79 218 7.8 14.8 0.00 0.00 0.00 39 1015.6
20260505165033 79 193 7.0 14.8 0.00 0.00 0.00 39 1015.5
20260505164545 79 196 5.2 13.9 0.00 0.00 0.00 41 1015.5
20260505164030 78 198 4.3 13.9 0.00 0.00 0.00 40 1015.4
20260505163531 78 180 5.2 12.2 0.00 0.00 0.00 41 1015.4
20260505163041 79 210 3.5 12.2 0.00 0.00 0.00 42 1015.4
20260505162530 79 217 5.2 11.3 0.00 0.00 0.00 44 1015.4
20260505162029 79 205 5.2 12.2 0.00 0.00 0.00 44 1015.4
20260505161540 78 201 5.2 12.2 0.00 0.00 0.00 45 1015.5
20260505161033 78 180 5.2 14.8 0.00 0.00 0.00 44 1015.5
20260505160530 78 219 4.3 14.8 0.00 0.00 0.00 43 1015.6
20260505153043 74 167 1.7 6.1 0.00 0.00 0.00 52 1015.8
20260505152535 74 146 1.7 7.0 0.00 0.00 0.00 53 1015.9
20260505152029 73 171 2.6 7.0 0.00 0.00 0.00 54 1015.7
20260505151540 72 271 0.0 3.5 0.00 0.00 0.00 57 1015.6
20260505151033 72 267 0.9 3.5 0.00 0.00 0.00 56 1015.8
20260505150534 73 0 0.9 3.5 0.00 0.00 0.00 56 1015.8
20260505140529 66 300 0.9 2.6 0.00 0.00 0.00 66 1016.0
20260505125031 58 53 0.9 2.6 0.00 0.00 0.00 77 1015.5
20260505124540 57 54 0.9 2.6 0.00 0.00 0.00 78 1015.4
20260505124029 57 0 0.0 0.0 0.00 0.00 0.00 79 1015.4
20260505123533 56 0 0.0 1.7 0.00 0.00 0.00 80 1015.5
20260505123038 56 0 0.0 2.6 0.00 0.00 0.00 80 1015.4
20260505122536 55 0 0.9 3.5 0.00 0.00 0.00 80 1015.3
20260505122035 55 56 0.9 3.5 0.00 0.00 0.00 81 1015.2
20260505121536 54 156 0.9 3.5 0.00 0.00 0.00 83 1015.3
20260505121033 53 0 0.0 2.6 0.00 0.00 0.00 84 1015.3
20260505120530 53 0 0.0 0.0 0.00 0.00 0.00 85 1015.3
20260505120044 52 0 0.0 0.0 0.00 0.00 0.00 85 1015.2
20260505115531 52 0 0.0 0.0 0.00 0.00 0.00 85 1015.2
20260505115035 51 0 0.0 0.0 0.00 0.00 0.00 85 1015.2
20260505114540 51 0 0.0 0.0 0.00 0.00 0.00 85 1015.1
20260505114032 51 0 0.0 0.0 0.00 0.00 0.00 85 1015.0
20260505113530 50 0 0.0 0.0 0.00 0.00 0.00 85 1014.8
20260505113037 50 0 0.0 0.0 0.00 0.00 0.00 85 1014.7
20260505112534 50 0 0.0 0.0 0.00 0.00 0.00 85 1014.6
20260505112032 50 0 0.0 0.0 0.00 0.00 0.00 85 1014.5
20260505111544 49 0 0.0 1.7 0.00 0.00 0.00 84 1014.4
20260505111032 49 0 0.0 1.7 0.00 0.00 0.00 84 1014.3
20260505110530 49 173 0.9 1.7 0.00 0.00 0.00 84 1014.3
20260505102032 50 0 0.0 1.7 0.00 0.00 0.00 83 1014.2
20260505101537 50 0 0.0 1.7 0.00 0.00 0.00 83 1014.1
20260505101029 50 173 0.9 1.7 0.00 0.00 0.00 82 1014.1
20260505100529 50 0 0.0 0.9 0.00 0.00 0.00 82 1014.2
20260505100044 51 0 0.0 0.9 0.00 0.00 0.00 82 1014.3
20260505095532 51 0 0.0 1.7 0.00 0.00 0.00 82 1014.4
20260505095033 51 0 0.0 1.7 0.00 0.00 0.00 81 1014.5
20260505094544 51 0 0.0 0.0 0.00 0.00 0.00 82 1014.5
20260505094031 51 0 0.0 0.9 0.00 0.00 0.00 82 1014.3
20260505093529 51 0 0.0 0.9 0.00 0.00 0.00 82 1014.2
20260505093043 51 0 0.0 0.9 0.00 0.00 0.00 81 1014.2
20260505092531 51 0 0.0 0.9 0.00 0.00 0.00 81 1014.1
20260505092033 51 0 0.0 0.9 0.00 0.00 0.00 82 1014.2
20260505091601 51 0 0.0 0.9 0.00 0.00 0.00 81 1014.0
20260505091029 51 0 0.0 0.0 0.00 0.00 0.00 81 1014.2
20260505090530 51 0 0.0 0.0 0.00 0.00 0.00 81 1014.3
20260505090044 51 0 0.0 0.0 0.00 0.00 0.00 81 1014.5
20260505085532 51 0 0.0 0.0 0.00 0.00 0.00 81 1014.4
20260505085030 51 0 0.0 0.0 0.00 0.00 0.00 81 1014.4
20260505084540 51 0 0.0 0.0 0.00 0.00 0.00 81 1014.5
20260505084029 51 0 0.0 0.0 0.00 0.00 0.00 81 1014.5
20260505083529 51 0 0.0 0.0 0.00 0.00 0.00 81 1014.4
20260505083039 52 0 0.0 0.0 0.00 0.00 0.00 80 1014.4
20260505082529 52 0 0.0 0.0 0.00 0.00 0.00 80 1014.4
20260505082029 52 0 0.0 0.0 0.00 0.00 0.00 80 1014.4
20260505081554 52 0 0.0 0.0 0.00 0.00 0.00 80 1014.3
20260505081029 52 0 0.0 0.0 0.00 0.00 0.00 80 1014.4
20260505080529 52 0 0.0 0.0 0.00 0.00 0.00 80 1014.4
20260505080050 52 0 0.0 0.0 0.00 0.00 0.00 80 1014.4
20260505075529 52 0 0.0 0.0 0.00 0.00 0.00 79 1014.4
20260505075029 52 0 0.0 0.0 0.00 0.00 0.00 79 1014.4
20260505074548 53 0 0.0 0.0 0.00 0.00 0.00 79 1014.3
20260505074028 53 0 0.0 0.0 0.00 0.00 0.00 78 1014.4
20260505073529 53 0 0.0 0.0 0.00 0.00 0.00 78 1014.4
20260505073043 53 0 0.0 0.0 0.00 0.00 0.00 78 1014.4
20260505072533 53 0 0.0 0.0 0.00 0.00 0.00 78 1014.5
20260505072030 53 0 0.0 0.0 0.00 0.00 0.00 78 1014.5
20260505071550 53 0 0.0 0.0 0.00 0.00 0.00 77 1014.4
20260505071029 53 0 0.0 0.0 0.00 0.00 0.00 77 1014.5
20260505070532 53 0 0.0 0.0 0.00 0.00 0.00 77 1014.4
20260505070049 53 0 0.0 0.0 0.00 0.00 0.00 77 1014.5
20260505065529 53 0 0.0 0.0 0.00 0.00 0.00 76 1014.4
20260505065029 53 0 0.0 0.0 0.00 0.00 0.00 77 1014.5
20260505064542 53 0 0.0 0.0 0.00 0.00 0.00 76 1014.5
20260505064029 53 0 0.0 0.0 0.00 0.00 0.00 77 1014.5
20260505063529 53 0 0.0 0.0 0.00 0.00 0.00 76 1014.5
20260505063051 53 0 0.0 0.0 0.00 0.00 0.00 76 1014.5
20260505062531 53 0 0.0 0.0 0.00 0.00 0.00 76 1014.5
20260505062029 53 0 0.0 0.0 0.00 0.00 0.00 76 1014.6
20260505061604 53 0 0.0 0.0 0.00 0.00 0.00 75 1014.6
20260505061031 54 0 0.0 0.0 0.00 0.00 0.00 75 1014.7
20260505060533 54 0 0.0 0.0 0.00 0.00 0.00 75 1014.7
20260505060048 54 0 0.0 0.0 0.00 0.00 0.00 74 1014.6
20260505055530 54 0 0.0 0.0 0.00 0.00 0.00 74 1014.7
20260505055030 54 0 0.0 0.0 0.00 0.00 0.00 74 1014.7
20260505054544 55 0 0.0 0.0 0.00 0.00 0.00 74 1014.8
20260505054032 55 0 0.0 0.0 0.00 0.00 0.00 73 1014.8
20260505053529 55 0 0.0 0.0 0.00 0.00 0.00 73 1014.8
20260505053046 55 0 0.0 0.0 0.00 0.00 0.00 73 1014.8
20260505052533 55 0 0.0 0.0 0.00 0.00 0.00 72 1014.7
20260505052032 56 0 0.0 0.0 0.00 0.00 0.00 72 1014.8
20260505051601 56 0 0.0 0.0 0.00 0.00 0.00 71 1014.7
20260505051033 56 0 0.0 0.0 0.00 0.00 0.00 71 1014.7
20260505050532 56 0 0.0 0.0 0.00 0.00 0.00 71 1014.8
20260505041543 57 0 0.0 0.0 0.00 0.00 0.00 68 1014.7
20260505041031 58 0 0.0 0.0 0.00 0.00 0.00 68 1014.6
20260505040536 58 0 0.0 0.0 0.00 0.00 0.00 67 1014.6
20260505040042 59 0 0.0 0.0 0.00 0.00 0.00 65 1014.6
20260505035530 59 0 0.0 0.0 0.00 0.00 0.00 65 1014.6
20260505035034 59 0 0.0 0.0 0.00 0.00 0.00 65 1014.7
20260505034541 59 0 0.0 0.0 0.00 0.00 0.00 65 1014.7
20260505034029 59 0 0.0 0.0 0.00 0.00 0.00 65 1014.8
20260505033533 59 0 0.0 0.0 0.00 0.00 0.00 65 1014.8
20260505033042 59 0 0.0 0.0 0.00 0.00 0.00 64 1014.8
20260505032532 60 0 0.0 0.0 0.00 0.00 0.00 64 1014.8
20260505032029 60 0 0.0 0.0 0.00 0.00 0.00 63 1014.8
20260505031546 60 0 0.0 0.0 0.00 0.00 0.00 63 1014.7
20260505031031 60 0 0.0 0.0 0.00 0.00 0.00 61 1014.7
20260505030533 61 0 0.0 0.0 0.00 0.00 0.00 61 1014.7
20260505030043 61 0 0.0 0.0 0.00 0.00 0.00 60 1014.7
20260505025530 62 0 0.0 0.0 0.00 0.00 0.00 58 1014.6
20260505025031 62 0 0.0 0.0 0.00 0.00 0.00 58 1014.7
20260505024548 62 0 0.0 0.0 0.00 0.00 0.00 58 1014.7
20260505024031 62 0 0.0 0.0 0.00 0.00 0.00 57 1014.9
20260505023532 63 0 0.0 0.0 0.00 0.00 0.00 57 1014.8
20260505023043 63 0 0.0 0.0 0.00 0.00 0.00 57 1014.7
20260505022533 63 0 0.0 0.0 0.00 0.00 0.00 54 1014.7
20260505022032 64 0 0.0 0.0 0.00 0.00 0.00 54 1014.5
20260505021544 64 0 0.0 0.0 0.00 0.00 0.00 53 1014.5
20260505021031 64 0 0.0 0.0 0.00 0.00 0.00 53 1014.4
20260505020531 64 0 0.0 0.0 0.00 0.00 0.00 52 1014.4
20260505020040 65 0 0.0 0.0 0.00 0.00 0.00 52 1014.4
20260505015530 65 0 0.0 0.0 0.00 0.00 0.00 49 1014.3
20260505015031 66 0 0.0 0.0 0.00 0.00 0.00 49 1014.3
20260505014539 66 0 0.0 0.0 0.00 0.00 0.00 49 1014.3
20260505014031 67 0 0.0 0.0 0.00 0.00 0.00 49 1014.4
20260505013529 67 0 0.0 0.0 0.00 0.00 0.00 48 1014.4
20260505013040 68 0 0.0 0.0 0.00 0.00 0.00 47 1014.2
20260505012532 69 0 0.0 0.0 0.00 0.00 0.00 47 1014.2
20260505012031 69 0 0.0 0.0 0.00 0.00 0.00 45 1014.3
20260505011544 69 0 0.0 0.0 0.00 0.00 0.00 44 1014.3
20260505011032 70 0 0.0 0.0 0.00 0.00 0.00 43 1014.3
20260505010531 70 0 0.0 0.0 0.00 0.00 0.00 43 1014.2
20260505010053 70 0 0.0 0.0 0.00 0.00 0.00 42 1014.2
20260505005532 71 0 0.0 0.0 0.00 0.00 0.00 42 1014.2
20260505005032 71 0 0.0 0.0 0.00 0.00 0.00 41 1014.2
20260505004541 71 0 0.0 0.0 0.00 0.00 0.00 41 1014.1
20260505004031 72 0 0.0 0.0 0.00 0.00 0.00 40 1014.0
20260505003531 72 0 0.0 3.5 0.00 0.00 0.00 40 1014.0
20260505003038 72 0 0.0 3.5 0.00 0.00 0.00 40 1014.0
20260505002533 73 0 0.9 3.5 0.00 0.00 0.00 40 1014.0
20260505002030 73 0 0.9 3.5 0.00 0.00 0.00 39 1014.0
20260505001544 73 190 0.9 4.3 0.00 0.00 0.00 39 1014.0
20260505001030 73 184 1.7 7.0 0.00 0.00 0.00 39 1013.9
20260505000531 73 198 3.5 7.0 0.00 0.00 0.00 39 1013.9
20260505000047 74 190 1.7 7.0 0.00 0.00 0.00 39 1013.8
20260504235531 74 212 3.5 7.8 0.00 0.00 0.00 39 1013.8
20260504235031 74 185 3.5 8.7 0.00 0.00 0.00 39 1013.8
20260504234540 74 202 4.3 8.7 0.00 0.00 0.00 38 1013.8
20260504234031 75 196 4.3 6.1 0.00 0.00 0.00 39 1013.7
20260504233529 75 209 2.6 7.8 0.00 0.00 0.00 38 1013.8
20260504233100 75 212 2.6 8.7 0.00 0.00 0.00 38 1013.9
20260504232530 75 217 3.5 8.7 0.00 0.00 0.00 38 1013.8
20260504232029 75 202 3.5 8.7 0.00 0.00 0.00 37 1013.8
20260504231543 75 188 3.5 7.0 0.00 0.00 0.00 37 1013.8
20260504231029 75 187 3.5 7.0 0.00 0.00 0.00 38 1013.8
20260504230531 76 223 2.6 8.7 0.00 0.00 0.00 38 1013.8
20260504230054 76 242 2.6 13.9 0.00 0.00 0.00 37 1013.7
20260504225533 76 206 5.2 13.9 0.00 0.00 0.00 37 1013.7
20260504225032 76 209 4.3 10.4 0.00 0.00 0.00 38 1013.6
20260504224542 77 209 4.3 9.6 0.00 0.00 0.00 38 1013.6
20260504224032 77 252 4.3 9.6 0.00 0.00 0.00 38 1013.6
20260504223531 77 174 3.5 9.6 0.00 0.00 0.00 39 1013.7
20260504223042 77 126 1.7 5.2 0.00 0.00 0.00 38 1013.7
20260504222531 77 196 1.7 7.0 0.00 0.00 0.00 38 1013.7
20260504222029 77 131 2.6 7.8 0.00 0.00 0.00 39 1013.8
20260504221540 77 219 2.6 8.7 0.00 0.00 0.00 39 1013.8
20260504221030 78 205 1.7 8.7 0.00 0.00 0.00 39 1013.8
20260504220531 78 217 3.5 8.7 0.00 0.00 0.00 39 1013.7
20260504220039 78 200 2.6 11.3 0.00 0.00 0.00 38 1013.8
20260504215531 78 182 4.3 11.3 0.00 0.00 0.00 38 1013.7
20260504215031 78 227 1.7 9.6 0.00 0.00 0.00 38 1013.7
20260504214548 78 169 5.2 9.6 0.00 0.00 0.00 37 1013.8
20260504214032 78 231 4.3 9.6 0.00 0.00 0.00 38 1013.7
20260504213529 78 252 2.6 8.7 0.00 0.00 0.00 36 1013.8
20260504213043 78 209 5.2 8.7 0.00 0.00 0.00 36 1013.8
20260504212530 78 221 1.7 10.4 0.00 0.00 0.00 35 1013.6
20260504212031 79 190 3.5 10.4 0.00 0.00 0.00 35 1013.7
20260504211542 79 194 2.6 6.1 0.00 0.00 0.00 35 1013.7
20260504211029 79 194 2.6 6.1 0.00 0.00 0.00 35 1013.8
20260504210536 78 209 1.7 7.8 0.00 0.00 0.00 35 1013.6
20260504210045 79 91 2.6 7.8 0.00 0.00 0.00 35 1013.7
20260504205530 79 237 3.5 7.8 0.00 0.00 0.00 36 1013.8
20260504205030 79 171 2.6 8.7 0.00 0.00 0.00 36 1013.8
20260504204546 79 115 4.3 8.7 0.00 0.00 0.00 38 1013.8
20260504204031 79 242 2.6 8.7 0.00 0.00 0.00 38 1013.8
20260504203531 79 188 2.6 8.7 0.00 0.00 0.00 38 1013.9
20260504203052 78 213 2.6 7.8 0.00 0.00 0.00 36 1013.8
20260504202529 78 219 3.5 7.8 0.00 0.00 0.00 35 1013.9
20260504202029 78 184 3.5 7.0 0.00 0.00 0.00 36 1013.9
20260504201543 78 290 2.6 7.8 0.00 0.00 0.00 37 1014.0
20260504201030 78 219 2.6 7.8 0.00 0.00 0.00 38 1014.1
20260504200530 78 209 2.6 8.7 0.00 0.00 0.00 38 1014.2
20260504200042 77 204 2.6 8.7 0.00 0.00 0.00 38 1014.4
20260504195532 77 217 1.7 7.0 0.00 0.00 0.00 39 1014.4
20260504195029 78 211 2.6 7.0 0.00 0.00 0.00 38 1014.5
20260504194539 78 232 1.7 7.8 0.00 0.00 0.00 38 1014.6
20260504194031 78 290 3.5 10.4 0.00 0.00 0.00 38 1014.7
20260504193533 78 175 4.3 10.4 0.00 0.00 0.00 38 1014.8
20260504193041 78 229 3.5 7.8 0.00 0.00 0.00 39 1014.8
20260504192529 78 196 1.7 5.2 0.00 0.00 0.00 39 1014.8